Probability
0 0 0 0 0 0 0 0 0 0 0 0 0 0 0 0 0 0 0 0 0 0 0 0 0 0 0 0 0 0 0 0 0 0 0 0 0 0 0 0 0 0 0
0 0 0 0 0 0 0 0 0 0 0 0 0 0 0 0 0 0 0 0 0 0 0 0 0 0 0 0 0 0 0 0 0 0 0 0 0 0 0 0 0 0 0
0 0 0 0 0 0 0 0 0 0 0 0 0 0 0 0 0 0 0 0 0 0 0 0 0 0 0 0 0 0 0 0 0 0 0 0 0 0 0 0 0 0 0
0 0 0 0 0 0 0 0 0 0 0 0 0 0 0 0 0 0 0 0 0 0 0 0 0 0 0 0 0 0 0 0 0 0 0 0 0 0 0 0 0 0 0
0 0 0 0 0 0 0 0 0 0 0 0 0 0 0 0 0 0 0 0 0 0 0 0 0 0 0 0 0 0 0 0 0 0 0 0 0 0 0 0 0 0 0
0 0 0 0 0 0 0 0 0 0 0 0 0 0 0 0 0 0 0 0 0 0 0 0 0 0 0 0 0 0 0 0 0 0 0 0 0 0 0 0 0 0 0
0 0 0 0 0 0 0 0 0 0 0 0 0 0 0 0 0 0 0 0 0 0 0 0 0 0 0 0 0 0 0 0 0 0 0 0 0 0 0 0 0 0 0
0 0 0 0 0 0 0 0 0 0 0 0 0 0 0 0 0 0 0 0 0 0 0 0 0 0 0 0 0 0 0 0 0 0 0 0 0 0 0 0 0 0 0
3 0 0 0 0 0 0 0 0 0 0 0 0 0 0 0 0 0 0 0 0 0 0 0 0 0 0 0 0 0 0 0 0 0 0 0 0 0 0 0 0 0 0
10 3 0 0 0 0 0 0 0 0 0 0 0 0 0 0 0 0 0 0 0 0 0 0 0 0 0 0 0 0 0 0 0 0 0 0 0 0 0 0 0 0 0
10 3 3 0 0 0 0 0 0 0 0 0 0 0 0 0 0 0 0 0 0 0 0 0 0 0 0 0 0 0 0 0 0 0 0 0 0 0 0 0 0 0 0
16 10 3 3 3 0 0 0 0 0 0 0 0 0 0 0 0 0 0 0 0 0 0 0 0 0 0 0 0 0 0 0 0 0 0 0 0 0 0 0 0 0 0
6 6 6 3 3 3 0 0 0 0 0 0 0 0 0 0 0 0 0 0 0 0 0 0 0 0 0 0 0 0 0 0 0 0 0 0 0 0 0 0 0 0 0
6 6 3 3 3 3 0 0 0 0 0 0 0 0 0 0 0 0 0 0 0 0 0 0 0 0 0 0 0 0 0 0 0 0 0 0 0 0 0 0 0 0 0
3 3 3 3 6 0 0 0 0 0 0 0 0 0 0 0 0 0 0 0 0 0 0 0 0 0 0 0 0 0 0 0 0 0 0 0 0 0 0 0 0 0 0
0 0 3 3 0 0 0 0 0 0 0 0 0 0 0 0 0 0 0 0 0 0 0 0 0 0 0 0 0 0 0 0 0 0 0 0 0 0 0 0 0 0 0
0 0 0 0 0 0 0 0 0 0 0 0 0 0 0 0 0 0 0 0 0 0 0 0 0 0 0 0 0 0 0 0 0 0 0 0 0 0 0 0 0 0 0
0 0 0 0 0 0 0 0 0 0 0 0 0 0 0 0 0 0 0 0 0 0 0 0 0 0 0 0 0 0 0 0 0 0 0 0 0 0 0 0 0 0 0
0 0 0 0 0 0 0 0 0 0 0 0 0 0 0 0 0 0 0 0 0 0 0 0 0 0 0 0 0 0 0 0 0 0 0 0 0 0 0 0 0 0 0
0 0 0 0 0 0 0 0 0 0 0 0 0 0 0 0 0 0 0 0 0 0 0 0 0 0 0 0 0 0 0 0 0 0 0 0 0 0 0 0 0 0 0
0 0 0 0 0 0 0 0 0 0 0 0 0 0 0 0 0 0 0 0 0 0 0 0 0 0 0 0 0 0 0 0 0 0 0 0 0 0 0 0 0 0 0
0 0 0 0 0 0 0 0 0 0 0 0 0 0 0 0 0 0 0 0 0 0 0 0 0 0 0 0 0 0 0 0 0 0 0 0 0 0 0 0 0 0 0
0 0 0 0 0 0 0 0 0 0 0 0 0 0 0 0 0 0 0 0 0 0 0 0 0 0 0 0 0 0 0 0 0 0 0 0 0 0 0 0 0 0 0
0 0 0 0 0 0 0 0 0 0 0 0 0 0 0 0 0 0 0 0 0 0 0 0 0 0 0 0 0 0 0 0 0 0 0 0 0 0 0 0 0 0 0
0 0 0 0 0 0 0 0 0 0 0 0 0 0 0 0 0 0 0 0 0 0 0 0 0 0 0 0 0 0 0 0 0 0 0 0 0 0 0 0 0 0 0
0 0 0 0 0 0 0 0 0 0 0 0 0 0 0 0 0 0 0 0 0 0 0 0 0 0 0 0 0 0 0 0 0 0 0 0 0 0 0 0 0 0 0
Height
5838 5838 5838 5837 5837 5836 5835 5835 5834 5833 5832 5832 5831 5830 5829 5828 5827 5826 5825 5824 5822 5820 5818 5816 5814 5813 5811 5810 5809 5808 5807 5806 5805 5804 5803 5803 5802 5802 5801 5801 5801 5801 5801
5832 5832 5832 5832 5831 5831 5830 5829 5828 5828 5827 5826 5825 5825 5824 5823 5822 5821 5820 5818 5817 5815 5813 5811 5809 5807 5805 5804 5803 5802 5801 5800 5799 5798 5797 5797 5796 5796 5795 5795 5795 5795 5795
5826 5826 5826 5826 5825 5825 5824 5823 5822 5822 5821 5820 5820 5819 5818 5817 5816 5815 5814 5812 5811 5809 5807 5805 5803 5801 5799 5798 5797 5796 5795 5794 5793 5792 5791 5790 5790 5789 5789 5788 5788 5788 5788
5820 5820 5819 5819 5819 5818 5818 5817 5816 5815 5815 5814 5814 5813 5812 5811 5810 5809 5808 5806 5805 5803 5801 5799 5797 5796 5794 5792 5791 5790 5788 5787 5786 5785 5784 5783 5782 5782 5781 5781 5781 5780 5780
5813 5812 5812 5812 5811 5811 5811 5810 5810 5809 5808 5807 5807 5806 5805 5804 5804 5802 5801 5800 5798 5797 5795 5793 5791 5790 5788 5786 5785 5783 5782 5780 5779 5778 5776 5775 5775 5774 5773 5773 5772 5772 5772
5804 5804 5804 5804 5804 5803 5803 5803 5802 5801 5801 5800 5800 5799 5798 5798 5797 5796 5794 5793 5791 5790 5788 5787 5785 5783 5781 5780 5778 5777 5775 5773 5772 5771 5769 5768 5767 5766 5765 5764 5763 5763 5762
5795 5795 5795 5795 5795 5795 5794 5793 5793 5793 5793 5792 5792 5791 5791 5790 5789 5788 5787 5786 5784 5782 5781 5779 5778 5776 5774 5772 5771 5769 5767 5766 5764 5763 5761 5760 5759 5757 5756 5755 5754 5753 5752
5785 5785 5785 5785 5785 5785 5784 5784 5784 5784 5784 5784 5783 5782 5782 5783 5781 5780 5779 5778 5776 5774 5773 5771 5770 5768 5766 5764 5762 5761 5759 5757 5756 5754 5752 5751 5750 5748 5747 5746 5744 5743 5742
5774 5774 5774 5774 5774 5774 5774 5774 5774 5774 5774 5774 5774 5774 5774 5774 5772 5772 5770 5769 5767 5766 5764 5762 5761 5759 5757 5755 5753 5751 5750 5748 5746 5744 5743 5741 5740 5738 5737 5735 5734 5733 5732
5762 5762 5761 5761 5762 5762 5762 5763 5763 5763 5763 5763 5763 5763 5764 5763 5763 5762 5761 5759 5758 5756 5755 5753 5751 5749 5747 5745 5743 5741 5739 5737 5735 5733 5732 5730 5728 5727 5725 5724 5722 5721 5720
5749 5749 5748 5748 5748 5749 5750 5750 5751 5751 5751 5752 5752 5752 5752 5752 5752 5751 5750 5749 5747 5746 5744 5743 5741 5739 5736 5734 5732 5730 5728 5726 5724 5722 5720 5718 5716 5715 5713 5711 5709 5708 5706
5737 5736 5735 5734 5735 5735 5736 5737 5738 5738 5739 5739 5740 5741 5741 5741 5741 5740 5739 5738 5737 5735 5733 5732 5729 5727 5725 5722 5720 5718 5716 5713 5711 5709 5707 5705 5703 5701 5699 5697 5695 5693 5691
5722 5721 5720 5720 5720 5721 5721 5722 5724 5725 5726 5726 5727 5728 5728 5729 5729 5729 5728 5727 5725 5724 5722 5720 5718 5715 5712 5710 5708 5705 5702 5700 5697 5695 5692 5690 5688 5686 5684 5681 5679 5677 5675
5705 5704 5703 5704 5705 5705 5706 5708 5710 5712 5713 5714 5715 5715 5716 5717 5717 5716 5716 5715 5713 5712 5710 5708 5705 5702 5699 5696 5694 5691 5688 5685 5682 5680 5677 5674 5672 5669 5666 5664 5661 5659 5656
5684 5684 5684 5685 5687 5689 5691 5693 5695 5697 5699 5701 5702 5703 5703 5704 5704 5704 5704 5703 5702 5699 5697 5695 5691 5688 5684 5681 5679 5676 5673 5670 5667 5663 5660 5657 5654 5651 5648 5644 5641 5638 5635
5662 5662 5662 5664 5667 5670 5673 5677 5680 5683 5685 5687 5688 5690 5691 5691 5692 5691 5691 5690 5689 5686 5683 5680 5676 5673 5669 5665 5663 5660 5657 5653 5650 5646 5642 5638 5635 5631 5628 5624 5620 5616 5613
5640 5640 5640 5643 5646 5650 5655 5659 5663 5667 5670 5673 5675 5677 5678 5679 5679 5679 5678 5677 5675 5673 5669 5665 5661 5657 5654 5650 5646 5643 5639 5636 5632 5627 5622 5619 5615 5610 5606 5602 5598 5593 5589
5619 5619 5620 5623 5627 5631 5636 5641 5647 5651 5655 5659 5661 5663 5664 5665 5666 5666 5665 5663 5661 5658 5655 5651 5646 5642 5638 5634 5630 5626 5621 5617 5612 5607 5602 5597 5593 5588 5583 5579 5574 5569 5564
5602 5602 5603 5606 5610 5615 5620 5625 5631 5636 5640 5644 5647 5650 5651 5652 5652 5652 5651 5649 5646 5644 5640 5636 5631 5627 5622 5617 5613 5608 5603 5598 5592 5587 5581 5576 5571 5566 5560 5554 5548 5543 5537
5590 5589 5590 5592 5596 5601 5606 5611 5616 5622 5627 5631 5634 5636 5638 5639 5639 5638 5637 5635 5632 5629 5625 5621 5616 5611 5606 5601 5596 5591 5585 5579 5573 5566 5560 5554 5548 5541 5535 5528 5522 5516 5510
5581 5580 5581 5582 5585 5590 5595 5599 5605 5610 5615 5619 5622 5624 5625 5626 5626 5625 5623 5621 5618 5615 5610 5606 5601 5595 5590 5584 5579 5573 5567 5560 5553 5545 5539 5530 5524 5517 5509 5503 5496 5491 5486
5577 5575 5575 5576 5579 5583 5587 5591 5596 5601 5605 5608 5611 5613 5614 5614 5613 5612 5610 5608 5604 5600 5596 5591 5585 5580 5573 5567 5561 5554 5547 5540 5533 5524 5518 5509 5499 5493 5485 5479 5473 5468 5464
5575 5573 5572 5573 5575 5578 5582 5586 5590 5593 5597 5600 5602 5603 5604 5603 5603 5601 5598 5594 5590 5586 5581 5576 5570 5564 5557 5550 5543 5535 5527 5519 5510 5502 5496 5490 5479 5472 5464 5457 5452 5448 5445
5575 5573 5572 5572 5574 5577 5579 5582 5585 5588 5591 5593 5594 5595 5594 5593 5592 5589 5586 5582 5577 5572 5567 5561 5555 5547 5540 5532 5524 5516 5508 5499 5490 5481 5475 5471 5462 5455 5447 5440 5434 5431 5428
5577 5574 5573 5573 5574 5576 5578 5580 5582 5584 5586 5587 5587 5587 5586 5584 5582 5579 5574 5569 5564 5558 5551 5544 5538 5530 5522 5514 5505 5498 5489 5482 5474 5463 5457 5453 5446 5441 5434 5426 5420 5415 5413
5579 5577 5575 5575 5575 5576 5577 5578 5579 5580 5581 5581 5580 5579 5577 5574 5571 5567 5562 5556 5550 5543 5536 5529 5521 5513 5505 5497 5488 5481 5473 5465 5457 5450 5443 5439 5433 5428 5425 5416 5408 5403 5400
Wind_Speed
28 27 26 26 26 25 25 25 26 26 26 26 25 25 25 25 25 26 26 26 27 28 28 28 29 29 29 29 29 29 28 28 28 28 28 29 29 29 29 29 28 28 28
30 29 28 27 27 27 27 27 27 27 27 27 27 26 26 26 26 26 26 27 27 27 27 28 28 29 28 28 29 29 29 29 29 29 29 29 30 30 30 30 30 30 30
32 32 31 30 30 30 29 29 29 29 28 28 27 27 26 27 27 26 27 27 27 27 27 28 28 27 27 27 28 29 29 30 30 31 31 31 31 32 32 32 33 33 34
35 35 34 33 33 32 32 31 31 31 30 29 29 28 28 28 27 27 27 27 27 27 27 28 28 27 27 28 28 29 30 30 31 31 32 32 33 33 34 35 35 36 37
39 39 38 38 37 36 35 35 34 33 33 32 31 31 30 29 29 28 28 28 28 28 28 28 28 28 28 28 29 29 30 30 31 32 32 33 33 34 34 35 36 37 38
42 42 42 41 40 39 39 38 38 37 35 34 34 33 33 32 31 30 30 30 30 30 30 30 30 30 31 31 30 30 31 31 32 32 33 33 34 34 35 36 37 38 38
46 45 44 44 43 43 43 42 41 40 38 38 37 36 36 34 33 33 32 32 32 32 33 33 33 33 33 33 33 33 33 33 33 33 34 35 35 36 36 37 38 38 39
49 49 48 47 47 47 46 46 45 43 42 41 40 39 38 37 36 36 35 34 35 35 35 36 36 37 37 37 37 36 36 36 36 36 36 36 37 38 39 39 39 40 40
52 52 51 51 51 50 49 49 48 47 46 45 43 42 41 40 39 38 37 37 37 38 39 39 40 40 41 41 40 40 40 40 40 40 40 40 40 41 41 42 42 42 43
55 55 54 54 54 53 52 51 51 50 49 48 47 46 45 43 42 41 40 40 41 41 42 42 43 44 44 44 44 44 44 44 44 44 44 44 44 44 44 45 45 46 47
56 57 57 57 57 55 55 54 53 53 52 51 50 49 48 46 45 44 43 43 43 44 44 45 46 46 47 47 47 47 48 48 48 48 48 48 47 47 48 48 49 50 51
57 58 59 60 60 59 58 57 56 56 55 54 53 52 51 49 47 47 46 45 46 46 47 47 48 49 49 50 50 50 50 51 51 51 51 51 51 52 52 53 54 55 56
58 59 61 62 62 62 62 61 59 58 58 57 56 54 54 52 50 50 49 48 48 48 49 50 50 51 52 53 53 54 53 54 54 55 56 55 55 56 57 58 59 60 61
62 63 63 63 64 64 64 63 62 61 60 59 58 57 57 56 54 52 52 51 51 51 51 52 53 54 55 56 56 57 57 56 57 59 59 59 60 61 62 63 64 65 66
67 67 67 67 66 65 65 65 63 63 62 61 61 60 59 58 56 55 54 54 54 54 54 54 56 58 58 58 58 59 59 59 61 62 62 64 64 65 67 68 68 69 70
70 70 70 70 69 67 66 65 64 64 63 62 62 61 60 59 59 58 57 56 56 56 56 57 59 59 60 60 61 62 62 62 63 64 65 67 69 69 70 71 72 73 74
69 69 70 69 68 67 66 64 63 63 63 62 62 61 61 61 61 59 59 58 57 57 59 60 60 61 62 63 64 64 64 65 66 67 68 69 71 72 73 74 74 76 77
63 64 65 65 65 64 63 62 61 60 60 61 61 61 61 61 61 60 59 58 58 59 60 61 62 63 64 65 66 67 67 67 68 69 70 71 72 73 74 75 77 78 79
52 54 56 57 57 57 57 57 56 55 55 56 57 58 59 59 59 59 58 58 58 59 60 63 64 64 65 67 67 67 68 68 69 70 71 73 74 76 77 78 79 79 80
40 42 45 47 47 48 48 49 48 48 48 49 50 52 53 54 55 55 56 56 58 59 61 63 64 65 66 66 67 67 67 68 70 71 73 75 77 78 79 79 79 78 77
31 33 34 35 36 37 39 39 40 40 41 42 43 45 47 49 49 50 53 55 56 59 60 63 64 64 65 66 66 66 68 69 71 74 75 77 78 78 78 77 75 73 71
22 23 25 25 26 28 29 30 31 33 34 36 38 39 42 44 44 48 50 52 55 58 60 61 61 63 64 65 66 68 69 71 72 75 75 74 74 73 71 70 68 66 63
16 16 16 17 18 19 20 22 24 26 28 30 33 36 39 40 43 46 49 52 54 55 56 57 59 61 63 65 67 68 70 71 71 72 70 67 67 66 65 63 61 58 56
12 10 10 11 12 13 15 17 20 22 24 27 30 34 36 38 41 44 46 48 50 52 54 57 59 61 63 65 66 67 68 67 67 67 66 62 61 59 56 54 54 53 51
8 6 6 8 9 11 13 15 17 20 23 26 28 31 33 36 38 41 44 46 50 53 55 57 59 61 63 63 63 63 63 62 61 60 59 55 51 47 46 48 50 49 48
8 6 5 5 6 7 10 12 15 17 20 22 25 28 32 35 38 41 44 47 50 53 55 56 58 59 59 59 59 58 56 54 52 50 48 45 43 41 39 41 44 45 44
Wind_Direction
275 276 276 277 278 278 278 278 278 278 280 281 283 285 286 286 287 288 290 291 293 295 295 296 296 295 294 292 291 289 287 285 283 282 280 279 278 276 276 275 274 274 273
273 274 275 275 276 277 277 277 277 277 278 279 281 282 283 284 285 287 290 292 293 295 297 298 298 298 296 293 291 290 288 285 283 282 281 280 279 277 276 275 275 274 273
271 272 273 274 274 274 275 276 276 277 277 277 279 280 281 282 283 285 288 291 293 295 297 299 300 300 298 295 292 290 288 286 284 283 282 281 279 278 276 275 275 274 274
271 271 271 271 271 272 273 274 275 275 275 276 277 278 279 279 281 284 287 290 292 294 297 299 300 299 298 296 293 291 289 287 285 283 282 281 280 279 278 276 275 275 275
270 270 269 270 270 271 272 273 273 273 274 275 275 276 277 278 280 282 284 287 289 292 295 297 298 297 296 295 293 291 288 287 286 284 283 282 281 280 279 279 278 277 276
268 268 268 269 270 270 271 271 271 272 273 274 274 275 277 278 279 281 282 284 286 289 292 293 294 294 293 292 291 289 287 286 285 284 283 282 282 281 281 281 280 279 278
267 267 267 267 268 268 269 269 269 270 271 271 273 274 276 277 279 280 281 282 284 285 288 290 291 291 290 290 288 287 286 285 284 283 282 282 281 281 281 281 281 281 280
269 268 267 266 266 266 266 267 268 268 269 270 271 273 275 276 277 278 280 281 282 283 285 287 288 288 288 287 287 286 285 285 284 283 282 281 281 281 281 281 281 280 280
267 267 265 264 264 264 265 265 266 267 268 269 270 272 273 274 275 277 279 279 280 282 284 285 286 286 286 286 285 285 285 284 284 283 282 282 282 281 281 281 281 280 280
267 267 266 265 264 264 264 264 264 265 267 268 269 270 271 272 273 275 276 278 279 281 283 284 285 285 284 284 284 284 284 284 283 283 283 283 283 282 282 282 281 281 281
266 266 265 264 264 263 262 261 262 263 265 266 267 268 270 271 272 273 275 277 278 280 282 284 285 285 284 283 283 284 284 284 283 283 283 283 283 282 282 282 282 281 281
264 264 263 263 262 261 260 260 259 260 262 263 265 267 269 270 271 273 274 275 277 279 282 284 284 285 284 283 283 284 284 284 283 283 283 283 283 282 282 282 282 282 282
265 264 262 261 260 259 258 258 258 258 259 261 262 264 266 268 270 272 274 275 277 279 281 282 283 284 284 283 282 282 282 283 282 282 282 282 283 283 282 282 282 283 283
266 264 262 261 259 259 258 258 257 257 258 259 260 262 264 266 269 271 273 275 277 279 281 282 282 282 283 283 282 283 283 282 282 283 282 282 283 284 283 283 283 283 283
268 265 262 260 259 257 257 257 257 257 258 259 260 262 264 266 268 271 273 275 277 279 280 281 282 282 283 284 283 284 283 283 284 283 283 283 283 284 284 284 284 283 283
268 266 263 261 259 257 256 256 256 257 258 259 260 262 264 266 269 271 273 275 277 278 278 280 281 282 283 284 284 285 285 284 285 285 284 284 284 284 285 285 284 284 283
269 266 263 261 260 258 256 255 255 256 257 259 261 262 264 267 269 271 273 275 276 278 279 280 280 281 283 284 285 286 286 286 286 285 285 285 286 286 285 286 285 285 284
270 266 263 261 259 258 257 256 255 255 256 257 259 262 264 266 268 270 273 275 276 277 278 279 281 283 284 285 286 287 288 288 289 288 288 288 288 287 287 287 287 286 285
272 267 263 260 259 258 257 256 256 255 255 256 258 260 263 265 268 270 272 274 275 276 277 279 281 283 285 287 288 288 289 290 291 290 290 289 289 288 289 288 288 287 285
274 268 263 260 258 256 255 255 255 255 255 256 258 260 262 265 267 270 272 272 275 276 278 280 282 285 287 288 289 290 291 291 291 291 291 291 290 291 290 289 288 287 286
275 270 264 259 256 254 252 252 252 253 254 255 257 260 262 265 268 270 272 274 275 277 280 282 285 286 287 289 291 292 292 292 292 292 292 292 291 291 290 290 289 288 287
280 272 264 257 252 251 250 248 248 250 252 255 257 259 263 266 268 271 273 274 276 279 281 284 286 288 290 292 293 293 293 293 293 292 293 292 292 292 291 290 289 288 288
289 275 262 252 247 245 246 247 247 250 251 254 257 261 265 266 269 273 276 279 282 284 286 289 290 292 293 294 294 294 295 295 294 293 293 293 293 293 292 291 290 290 291
303 286 267 252 244 237 238 244 245 249 253 258 262 266 268 270 274 278 282 285 288 290 292 293 295 296 296 296 296 296 296 295 295 294 294 294 294 293 292 291 292 292 294
335 316 292 255 245 243 247 251 253 256 259 262 266 271 275 280 283 286 289 292 294 296 297 298 298 298 298 298 298 298 297 296 295 295 296 297 295 295 294 294 294 295 296
356 345 328 290 272 266 263 263 265 267 270 272 278 282 285 288 290 293 296 298 299 300 300 300 300 300 300 300 300 299 298 298 297 297 298 299 297 296 296 296 296 296 298